Content
SEND FEEDBACK

Daily
Averages
Monthly
Summary
United States of America

ROCK HILL, NEW YORK


Home > North America > United States > New York
Elevation: 1260 feet     Latitude: 41 35N     Longitude: 074 37W

WEATHER
 
SELECT A DAY
Number of Records: 443,300;   Date Range: 1/1/95 - 7/23/14
 
SHARE

PRINT THIS DATA

[ ← Previous Day ]
WEATHER ALMANAC - FEBRUARY 4, 2014
[ Next Day → ]
[ °C ]   °F
Weather ElementAverageHighLow
Temperature19.2 °F26.6 °F (2:15 pm)8.6 °F (7:35 am)
Dewpoint10.7 °F17.6 °F (7:55 pm)3.2 °F (5:15 am)
Humidity69.9 %80 % (11:35 pm)55 % (2:15 pm)
Barometer30.32 in30.41 in (10:35 am)30.21 in (11:35 pm)
Wind Speed3 mph9.2 mph (10:35 pm)
Weather ElementAverage
Visibility10 mi
Wind DirectionESE (110.3 °)

Weather ElementTotal
Precipitation---
Heating Degree Days47.4 (Base 65)
Averaged from 71 records on February 4, 2014
WEATHER CONDITIONS BREAKOUT
WIND DIRECTION BREAKOUT
WEATHER BY HOUR - FEBRUARY 4, 2014
[ °C ]   °F
Local TimeTemperatureDewpointHumidityBarometerVisibilityWind DirectionWind SpeedGust SpeedPrecipitationEventsConditions
12:35 AM14.0 °F8.6 °F79 %30.27 in10.0 miNW (320°)4.6 mphClear
12:55 AM14.0 °F6.8 °F73 %30.27 in10.0 miNW (310°)6.9 mphMostly Cloudy
1:15 AM14.0 °F6.8 °F73 %30.29 in10.0 miNW (310°)6.9 mphOvercast
1:35 AM14.0 °F6.8 °F73 %30.30 in10.0 miNW (310°)6.9 mphOvercast
1:55 AM14.0 °F6.8 °F73 %30.30 in10.0 miNW (320°)5.8 mphOvercast
2:15 AM14.0 °F6.8 °F73 %30.30 in10.0 miNW (320°)6.9 mphMostly Cloudy
2:35 AM14.0 °F6.8 °F73 %30.29 in10.0 miNW (320°)4.6 mphMostly Cloudy
2:55 AM14.0 °F6.8 °F73 %30.30 in10.0 miNW (320°)5.8 mphOvercast
3:15 AM14.0 °F6.8 °F73 %30.29 in10.0 miNW (320°)6.9 mphOvercast
3:35 AM14.0 °F6.8 °F73 %30.31 in10.0 miNW (310°)8.1 mphOvercast
3:55 AM12.2 °F6.8 °F79 %30.31 in10.0 miNW (310°)6.9 mphOvercast
4:15 AM12.2 °F5.0 °F73 %30.32 in10.0 miNW (310°)8.1 mphOvercast
4:35 AM12.2 °F5.0 °F73 %30.32 in10.0 miNW (310°)8.1 mphScattered Clouds
4:55 AM10.4 °F5.0 °F79 %30.32 in10.0 miNW (310°)8.1 mphClear
5:15 AM10.4 °F3.2 °F73 %30.32 in10.0 miNW (310°)8.1 mphClear
5:35 AM10.4 °F5.0 °F79 %30.32 in10.0 miWNW (300°)6.9 mphClear
5:55 AM10.4 °F3.2 °F73 %30.33 in10.0 miNW (320°)4.6 mphClear
6:15 AM10.4 °F5.0 °F79 %30.32 in10.0 miWNW (300°)3.5 mphClear
6:35 AM10.4 °F3.2 °F73 %30.34 in10.0 miWNW (300°)3.5 mphClear
6:55 AM10.4 °F3.2 °F73 %30.34 in10.0 miWNW (290°)4.6 mphClear
7:15 AM10.4 °F3.2 °F73 %30.36 in10.0 miWNW (300°)4.6 mphClear
7:35 AM8.6 °F3.2 °F79 %30.36 in10.0 miCalmClear
7:55 AM10.4 °F5.0 °F79 %30.36 in10.0 miCalmClear
8:15 AM10.4 °F3.2 °F73 %30.37 in10.0 miCalmClear
8:35 AM10.4 °F3.2 °F73 %30.38 in10.0 miCalmClear
8:55 AM12.2 °F6.8 °F79 %30.38 in10.0 miCalmClear
9:15 AM12.2 °F6.8 °F79 %30.39 in10.0 miCalmClear
9:35 AM14.0 °F6.8 °F73 %30.39 in10.0 miCalmClear
9:55 AM15.8 °F6.8 °F68 %30.40 in10.0 miCalmClear
10:15 AM17.6 °F8.6 °F68 %30.40 in10.0 miCalmClear
10:35 AM19.4 °F6.8 °F58 %30.41 in10.0 miCalmClear
10:55 AM19.4 °F8.6 °F63 %30.41 in10.0 miCalmClear
11:15 AM19.4 °F8.6 °F63 %30.40 in10.0 miCalmClear
11:35 AM21.2 °F12.2 °F68 %30.39 in10.0 miCalmClear
11:55 AM21.2 °F10.4 °F63 %30.37 in10.0 miCalmClear
12:15 PM21.2 °F12.2 °F68 %30.36 in10.0 miCalmClear
12:35 PM23.0 °F12.2 °F63 %30.36 in10.0 miESE (120°)3.5 mphClear
12:55 PM23.0 °F12.2 °F63 %30.35 in10.0 miCalmClear
1:15 PM24.8 °F14.0 °F64 %30.35 in10.0 miCalmClear
1:35 PM24.8 °F12.2 °F59 %30.34 in10.0 miCalmClear
1:55 PM24.8 °F12.2 °F59 %30.33 in10.0 miCalmClear
2:15 PM26.6 °F12.2 °F55 %30.33 in10.0 miCalmClear
2:35 PM26.6 °F14.0 °F59 %30.32 in10.0 miCalmClear
2:55 PM26.6 °F14.0 °F59 %30.31 in10.0 miCalmClear
3:15 PM26.6 °F15.8 °F64 %30.29 in10.0 miSouth (170°)3.5 mphClear
3:35 PM26.6 °F14.0 °F59 %30.30 in10.0 miCalmClear
3:55 PM26.6 °F15.8 °F64 %30.30 in10.0 miCalmClear
4:15 PM26.6 °F14.0 °F59 %30.29 in10.0 miCalmClear
4:35 PM26.6 °F14.0 °F59 %30.29 in10.0 miCalmClear
4:55 PM26.6 °F14.0 °F59 %30.30 in10.0 miCalmClear
5:15 PM26.6 °F15.8 °F64 %30.32 in10.0 miCalmClear
5:35 PM26.6 °F15.8 °F64 %30.33 in10.0 miCalmClear
5:55 PM24.8 °F15.8 °F69 %30.33 in10.0 miCalmClear
6:15 PM24.8 °F15.8 °F69 %30.34 in10.0 miCalmClear
6:35 PM24.8 °F15.8 °F69 %30.32 in10.0 miCalmPartly Cloudy
6:55 PM24.8 °F15.8 °F69 %30.30 in10.0 miCalmPartly Cloudy
7:15 PM24.8 °F15.8 °F69 %30.31 in10.0 miCalmClear
7:35 PM24.8 °F15.8 °F69 %30.30 in10.0 miENE (60°)3.5 mphScattered Clouds
7:55 PM24.8 °F17.6 °F74 %30.31 in10.0 miCalmScattered Clouds
8:15 PM24.8 °F15.8 °F69 %30.31 in10.0 miCalmClear
8:35 PM24.8 °F15.8 °F69 %30.30 in10.0 miENE (60°)4.6 mphMostly Cloudy
8:55 PM24.8 °F17.6 °F74 %30.31 in10.0 miESE (110°)5.8 mphMostly Cloudy
9:15 PM24.8 °F17.6 °F74 %30.29 in10.0 miENE (60°)4.6 mphOvercast
9:35 PM24.8 °F15.8 °F69 %30.30 in10.0 miEast (90°)5.8 mphMostly Cloudy
9:55 PM24.8 °F17.6 °F74 %30.27 in10.0 miEast (80°)4.6 mphPartly Cloudy
10:15 PM23.0 °F15.8 °F74 %30.25 in10.0 miEast (80°)8.1 mphClear
10:35 PM23.0 °F15.8 °F74 %30.23 in10.0 miENE (60°)9.2 mphClear
10:55 PM23.0 °F15.8 °F74 %30.24 in10.0 miEast (100°)4.6 mphScattered Clouds
11:15 PM23.0 °F15.8 °F74 %30.22 in10.0 miESE (120°)8.1 mphOvercast
11:35 PM21.2 °F15.8 °F80 %30.21 in10.0 miEast (100°)6.9 mphOvercast
11:55 PM21.2 °F15.8 °F80 %30.21 in10.0 miEast (100°)8.1 mphOvercast
Hourly data recorded from KMSV, located miles away from Rock Hill, New York







STORIES FROM OUR PARTNERS